Weather History for Wayne, NE

Change the Weather History Date:

Saturday, April 6, 2013

  Actual Average (KOFK) Record (KOFK)
Temperature  
Mean Temperature 54 °F 46 °F  
Max Temperature 70 °F 58 °F 91 °F (1991)
Min Temperature 39 °F 34 °F 12 °F (1936)
Degree Days  
Heating Degree Days 10 19  
Month to date heating degree days 121  
Since 1 July heating degree days 6070  
Cooling Degree Days 0 0  
Month to date cooling degree days 0  
Year to date cooling degree days 0  
Growing Degree Days 4 (Base 50)    
Moisture  
Dew Point 38 °F    
Average Humidity 57    
Maximum Humidity 97    
Minimum Humidity 26    
Precipitation  
Precipitation 0.01 in 0.08 in 0.85 in (1895)
Month to date precipitation 0.45  
Year to date precipitation 3.57  
Snow  
Snow 0.00 in 0.10 in - ()
Month to date snowfall 0.8  
Since 1 July snowfall 28.7  
Snow Depth -    
Sea Level Pressure  
Sea Level Pressure 29.65 in    
Wind  
Wind Speed 15 mph (West)    
Max Wind Speed 25 mph    
Max Gust Speed 39 mph    
Visibility 10 miles    
Events Rain    
T = Trace of Precipitation, MM = Missing Value Source: NWS Daily Summary

Daily Weather History Graph

Daily Weather History Graph

Search for Another Location

Airport:

Trip Planner

Search our weather history database for the weather conditions in past years. The results will help you decide how hot, cold, wet, or windy it might be!

Date:

Astronomy

Apr. 06, 2013 Rise Set
Actual Time 7:01 AM CDT 7:59 PM CDT
Civil Twilight 6:32 AM CDT 8:28 PM CDT
Nautical Twilight 5:58 AM CDT 9:02 PM CDT
Astronomical Twilight 5:23 AM CDT 9:37 PM CDT
Moon 4:50 AM CDT (4/6) 4:26 PM CDT (4/6)
Length of Visible Light 13h 55m
Length of Day
12h 58m
Waning Crescent, 15% of the Moon is Illuminated
Apr 6
Waning Crescent
Apr 10
New
Apr 18
First Quarter
Apr 25
Full
May 2
Last Quarter

Hourly Weather History & Observations

Time (CDT) Temp. Windchill Dew Point Humidity Pressure Visibility Wind Dir Wind Speed Gust Speed Precip Events Conditions
12:15 AM 57.4 °F - 34.7 °F 43% 29.65 in 10.0 mi South 16.1 mph - N/A   Clear
12:35 AM 57.6 °F - 35.6 °F 44% 29.64 in 10.0 mi South 19.6 mph 25.3 mph N/A   Mostly Cloudy
12:55 AM 58.1 °F - 36.0 °F 44% 29.64 in 10.0 mi South 19.6 mph - N/A   Overcast
1:15 AM 57.2 °F - 36.5 °F 46% 29.64 in 10.0 mi South 15.0 mph - N/A   Scattered Clouds
1:35 AM 56.8 °F - 36.9 °F 47% 29.63 in 10.0 mi South 17.3 mph - N/A   Clear
1:55 AM 56.3 °F - 37.4 °F 49% 29.63 in 10.0 mi South 15.0 mph - N/A   Scattered Clouds
2:15 AM 55.8 °F - 37.4 °F 50% 29.62 in 10.0 mi South 13.8 mph - N/A   Clear
2:35 AM 55.6 °F - 37.8 °F 51% 29.60 in 10.0 mi South 15.0 mph 21.9 mph N/A   Scattered Clouds
2:55 AM 55.4 °F - 38.1 °F 52% 29.59 in 10.0 mi South 16.1 mph 21.9 mph N/A   Scattered Clouds
3:15 AM 55.4 °F - 38.5 °F 53% 29.59 in 10.0 mi SSW 11.5 mph - N/A   Mostly Cloudy
3:35 AM 55.4 °F - 39.2 °F 54% 29.58 in 10.0 mi SSW 19.6 mph 24.2 mph N/A   Mostly Cloudy
3:55 AM 55.4 °F - 39.4 °F 55% 29.57 in 10.0 mi SSW 17.3 mph - N/A   Mostly Cloudy
4:15 AM 54.1 °F - 39.7 °F 58% 29.57 in 10.0 mi SSW 13.8 mph 24.2 mph N/A   Scattered Clouds
4:35 AM 54.0 °F - 40.1 °F 59% 29.57 in 10.0 mi SSW 17.3 mph - N/A   Scattered Clouds
4:55 AM 53.1 °F - 40.3 °F 62% 29.57 in 10.0 mi SW 10.4 mph - N/A   Clear
5:15 AM 52.9 °F - 40.6 °F 63% 29.57 in 10.0 mi SSW 12.7 mph 20.7 mph N/A   Clear
5:35 AM 52.0 °F - 40.5 °F 65% 29.57 in 10.0 mi SSW 6.9 mph - N/A   Clear
5:55 AM 51.1 °F - 40.8 °F 68% 29.57 in 10.0 mi South 9.2 mph - N/A   Clear
6:15 AM 51.6 °F - 41.0 °F 67% 29.57 in 10.0 mi SW 9.2 mph - N/A   Clear
6:35 AM 51.3 °F - 41.2 °F 68% 29.58 in 10.0 mi WSW 6.9 mph - N/A   Clear
6:55 AM 51.1 °F - 41.4 °F 69% 29.57 in 10.0 mi WSW 6.9 mph - N/A   Clear
7:15 AM 50.5 °F - 35.8 °F 57% 29.58 in 10.0 mi NW 10.4 mph 20.7 mph N/A   Clear
7:35 AM 48.9 °F - 33.3 °F 55% 29.59 in 10.0 mi NW 8.1 mph - N/A   Clear
7:55 AM 48.2 °F - 33.4 °F 57% 29.59 in 10.0 mi NW 15.0 mph 19.6 mph N/A   Clear
8:15 AM 48.7 °F - 33.8 °F 56% 29.60 in 10.0 mi NW 10.4 mph - N/A   Clear
8:35 AM 48.9 °F - 33.4 °F 55% 29.62 in 10.0 mi NW 13.8 mph 18.4 mph N/A   Scattered Clouds
8:55 AM 48.2 °F - 33.6 °F 57% 29.62 in 10.0 mi NW 17.3 mph 24.2 mph N/A   Mostly Cloudy
9:15 AM 48.2 °F - 33.4 °F 57% 29.64 in 10.0 mi WNW 18.4 mph - N/A   Overcast
9:35 AM 47.3 °F - 33.1 °F 58% 29.64 in 10.0 mi WNW 21.9 mph 28.8 mph N/A   Overcast
9:55 AM 47.3 °F - 33.4 °F 59% 29.63 in 10.0 mi NW 15.0 mph 25.3 mph N/A   Mostly Cloudy
10:15 AM 46.9 °F - 35.6 °F 65% 29.63 in 10.0 mi NW 18.4 mph 24.2 mph N/A Rain Light Rain
10:35 AM 45.1 °F 37.9 °F 36.1 °F 71% 29.65 in 10.0 mi NW 17.3 mph 21.9 mph N/A   Light Drizzle
10:55 AM 44.6 °F 37.4 °F 40.1 °F 84% 29.64 in 10.0 mi NW 16.1 mph 20.7 mph N/A   Scattered Clouds
11:15 AM 47.7 °F - 39.9 °F 75% 29.64 in 10.0 mi NW 19.6 mph 26.5 mph N/A   Clear
11:35 AM 51.8 °F - 39.2 °F 62% 29.64 in 10.0 mi NW 20.7 mph 26.5 mph N/A   Clear
11:55 AM 55.6 °F - 37.4 °F 50% 29.64 in 10.0 mi NW 23.0 mph 29.9 mph N/A   Clear
12:15 PM 57.7 °F - 36.5 °F 45% 29.64 in 10.0 mi NW 21.9 mph 31.1 mph N/A   Clear
12:35 PM 59.9 °F - 36.1 °F 41% 29.63 in 10.0 mi NNW 24.2 mph 33.4 mph N/A   Scattered Clouds
12:55 PM 61.9 °F - 34.9 °F 36% 29.64 in 10.0 mi NW 24.2 mph 33.4 mph N/A   Clear
1:15 PM 63.0 °F - 32.7 °F 32% 29.64 in 10.0 mi NW 24.2 mph 33.4 mph N/A   Scattered Clouds
1:35 PM 63.5 °F - 32.2 °F 31% 29.64 in 10.0 mi NNW 25.3 mph 32.2 mph N/A   Scattered Clouds
1:55 PM 64.6 °F - 32.5 °F 30% 29.64 in 10.0 mi NW 20.7 mph 32.2 mph N/A   Clear
2:15 PM 65.3 °F - 33.1 °F 30% 29.64 in 10.0 mi NW 24.2 mph 31.1 mph N/A   Clear
2:35 PM 65.5 °F - 33.4 °F 30% 29.65 in 10.0 mi NNW 19.6 mph 27.6 mph N/A   Scattered Clouds
2:55 PM 64.0 °F - 34.0 °F 33% 29.65 in 10.0 mi NW 20.7 mph 29.9 mph N/A   Mostly Cloudy
3:15 PM 67.1 °F - 35.4 °F 31% 29.65 in 10.0 mi NW 23.0 mph 38.0 mph N/A   Scattered Clouds
3:35 PM 67.3 °F - 35.6 °F 31% 29.65 in 10.0 mi NNW 21.9 mph 32.2 mph N/A   Clear
3:55 PM 68.2 °F - 34.5 °F 29% 29.65 in 10.0 mi NW 19.6 mph 32.2 mph N/A   Clear
4:15 PM 68.0 °F - 34.5 °F 29% 29.65 in 10.0 mi NNW 21.9 mph 27.6 mph N/A   Clear
4:35 PM 69.3 °F - 33.3 °F 26% 29.66 in 10.0 mi NNW 19.6 mph 31.1 mph N/A   Clear
4:55 PM 69.8 °F - 33.8 °F 27% 29.66 in 10.0 mi NNW 15.0 mph 27.6 mph N/A   Clear
5:15 PM 69.4 °F - 34.9 °F 28% 29.66 in 10.0 mi NNW 15.0 mph 26.5 mph N/A   Scattered Clouds
5:35 PM 67.8 °F - 34.9 °F 30% 29.67 in 10.0 mi NNW 12.7 mph 18.4 mph N/A   Scattered Clouds
5:55 PM 65.5 °F - 37.8 °F 36% 29.69 in 10.0 mi West 11.5 mph 19.6 mph N/A Rain Rain
6:15 PM 57.2 °F - 47.7 °F 70% 29.73 in 7.0 mi NW 18.4 mph 39.1 mph 0.01 in Rain Rain
6:35 PM 59.7 °F - 46.6 °F 62% 29.70 in 10.0 mi WNW 6.9 mph 10.4 mph 0.01 in   Mostly Cloudy
6:55 PM 60.1 °F - 46.8 °F 61% 29.70 in 10.0 mi West 3.5 mph - 0.01 in   Clear
7:15 PM 58.6 °F - 46.4 °F 64% 29.71 in 10.0 mi WSW 4.6 mph - N/A   Clear
7:35 PM 58.3 °F - 46.8 °F 66% 29.72 in 10.0 mi Calm Calm - N/A   Clear
7:55 PM 55.0 °F - 45.7 °F 71% 29.73 in 10.0 mi WNW 6.9 mph - N/A   Clear
8:15 PM 52.9 °F - 45.5 °F 76% 29.73 in 10.0 mi NNW 3.5 mph - N/A   Clear
8:35 PM 51.6 °F - 45.0 °F 78% 29.73 in 10.0 mi Calm Calm - N/A   Clear
8:55 PM 49.1 °F - 44.4 °F 84% 29.74 in 10.0 mi Calm Calm - N/A   Clear
9:15 PM 46.4 °F 45.2 °F 43.2 °F 88% 29.74 in 10.0 mi SW 3.5 mph - N/A   Clear
9:35 PM 44.6 °F - 42.1 °F 91% 29.76 in 10.0 mi Calm Calm - N/A   Clear
9:55 PM 48.4 °F - 45.3 °F 89% 29.77 in 10.0 mi Calm Calm - N/A   Clear
10:15 PM 45.5 °F 44.2 °F 42.6 °F 90% 29.78 in 10.0 mi SW 3.5 mph - N/A   Clear
10:35 PM 42.3 °F - 40.3 °F 93% 29.78 in 10.0 mi Calm Calm - N/A   Clear
10:55 PM 41.7 °F - 39.7 °F 93% 29.78 in 10.0 mi Calm Calm - N/A   Clear
11:15 PM 41.4 °F - 40.3 °F 96% 29.78 in 10.0 mi Calm Calm - N/A   Clear
11:35 PM 40.3 °F - 39.2 °F 96% 29.79 in 10.0 mi Calm Calm - N/A   Clear
11:55 PM 39.4 °F - 38.5 °F 97% 29.80 in 10.0 mi Calm Calm - N/A   Clear